Starlink 31769

operational
NORAD ID: 59617 Int'l Des: 2024-080 Owner: SPXS Country: US Constellation: starlink
LEOCIRCULAR

Starlink 31769について

説明を読み込み中...

リアルタイム位置

3D地球を読み込み中...

次回通過

高度履歴

Altitude vs Time

uPlot chart will show altitude changes over time

軌道要素

1 59617U 24080S 25258.48590753 .00001190 00000-0 52776-4 0 9997
2 59617 43.0012 307.6951 0000959 266.5769 93.4973 15.27577094 77731
Epoch: Sep 15, 2025 • Age: 11 hours

現在のステータス

高度 483.4 km
速度 7.63 km/s
衛星直下点 25.72°N, 1.44°W
打ち上げ日 Apr 28, 2024
運用期間 1.3 years
タイプ internet

技術仕様

分類 Payload
質量 730.00 kg
乾燥質量 700.00 kg
総質量 730.00 kg
長さ 0.30 m
直径 4.10 m
スパン 29.00 m
形状 Box + pan
製造者 SPXS
バスタイプ Starlink V2M
フェーズステータス In Orbit
所有者/国 SPXS/US

大規模コンステレーション

Loading constellations...